This is the latest recevied weather packets stored in our database for station/object PA0HHN. If no packets are shown the sender has not sent any weather packets the latest 10 day(s).
| Time | Temp. | Humidity | Pressure | Rain* | Wind** | Luminosity | Snow |
|---|---|---|---|---|---|---|---|
| 1788444002 | 22.22° C | 78% | 1008.3 hPa | - | - | - | - |
| 1788443102 | 22.22° C | 77% | 1007.7 hPa | - | - | - | - |
| 1788442200 | 22.78° C | 76% | 1008.1 hPa | - | - | - | - |
| 1788441300 | 22.78° C | 76% | 1007.8 hPa | - | - | - | - |
| 1788440400 | 22.22° C | 76% | 1007.8 hPa | - | - | - | - |
| 1788439502 | 22.78° C | 77% | 1007.5 hPa | - | - | - | - |
| 1788438604 | 22.78° C | 76% | 1007.6 hPa | - | - | - | - |
| 1788437702 | 22.22° C | 77% | 1007.4 hPa | - | - | - | - |
| 1788436801 | 22.78° C | 77% | 1007.4 hPa | - | - | - | - |
| 1788435901 | 22.78° C | 77% | 1007.4 hPa | - | - | - | - |
| 1788435000 | 22.78° C | 77% | 1007 hPa | - | - | - | - |
| 1788434101 | 22.22° C | 82% | 1007.1 hPa | - | - | - | - |
| 1788433203 | 22.22° C | 85% | 1007.1 hPa | - | - | - | - |
| 1788432302 | 21.11° C | 89% | 1007 hPa | - | - | - | - |
| 1788431400 | 21.11° C | 90% | 1007.5 hPa | - | - | - | - |
| 1788430502 | 20° C | 91% | 1007.5 hPa | - | - | - | - |
| 1788429602 | 18.89° C | 95% | 1007.3 hPa | - | - | - | - |
| 1788428702 | 18.89° C | 99% | 1007.6 hPa | - | - | - | - |
| 1788427802 | 17.78° C | 99% | 1007.3 hPa | - | - | - | - |
| 1788426901 | 17.78° C | 99% | 1007.4 hPa | - | - | - | - |
| 1788426000 | 17.78° C | 98% | 1007.2 hPa | - | - | - | - |
| 1788425102 | 17.78° C | 96% | 1007.1 hPa | - | - | - | - |
| 1788424202 | 17.78° C | 95% | 1007.2 hPa | - | - | - | - |
| 1788423300 | 17.78° C | 94% | 1007.2 hPa | - | - | - | - |
| 1788422400 | 17.78° C | 95% | 1007.3 hPa | - | - | - | - |
* Rain since midnight (hover to see other rain measurements)
** Current wind speed in m/s (hover to see current wind gust speed)